GFSFLT2_prec_precacc12_060.txt.gz
Total_Precipitation_Accumulation
4.07 1.50 0.70 0.55 0.47 0.08 0.01 0.02 0.01 0.00 0.00 0.00 0.00 0.00 0.00 0.00 0.00 0.00 0.00 0.00 0.00 0.00 0.00 0.00 0.00 0.00 0.00 0.00 0.00 0.00 0.00 0.00
3.08 2.31 1.74 1.08 0.76 0.26 0.09 0.06 0.04 0.00 0.00 0.00 0.00 0.00 0.00 0.00 0.00 0.00 0.00 0.00 0.00 0.00 0.00 0.00 0.00 0.00 0.00 0.00 0.00 0.00 0.00 0.00
1.02 1.03 0.89 0.89 0.69 0.48 0.27 0.17 0.04 0.00 0.00 0.00 0.00 0.00 0.00 0.00 0.00 0.00 0.00 0.00 0.00 0.00 0.00 0.00 0.00 0.00 0.00 0.00 0.00 0.00 0.00 0.00
0.49 0.38 0.18 0.14 0.28 0.31 0.27 0.16 0.09 0.01 0.00 0.00 0.00 0.00 0.00 0.00 0.00 0.00 0.00 0.00 0.00 0.00 0.00 0.00 0.00 0.00 0.00 0.00 0.00 0.00 0.00 0.00
0.30 0.34 0.21 0.14 0.14 0.18 0.21 0.13 0.06 0.01 0.00 0.00 0.00 0.00 0.00 0.00 0.00 0.00 0.00 0.00 0.00 0.00 0.00 0.00 0.00 0.00 0.00 0.00 0.00 0.00 0.00 0.00
0.12 0.26 0.30 0.43 0.30 0.21 0.17 0.11 0.03 0.01 0.01 0.01 0.00 0.00 0.00 0.00 0.00 0.00 0.00 0.00 0.00 0.00 0.00 0.00 0.00 0.00 0.00 0.00 0.00 0.00 0.00 0.00
0.18 0.12 0.16 0.17 0.21 0.22 0.17 0.15 0.04 0.01 0.00 0.00 0.00 0.00 0.00 0.00 0.00 0.00 0.00 0.00 0.00 0.00 0.00 0.00 0.00 0.00 0.00 0.00 0.00 0.00 0.00 0.00
0.18 0.18 0.19 0.21 0.19 0.21 0.13 0.07 0.01 0.00 0.00 0.00 0.01 0.00 0.00 0.00 0.00 0.00 0.00 0.00 0.00 0.00 0.00 0.00 0.00 0.00 0.00 0.00 0.00 0.00 0.00 0.00
0.16 0.16 0.18 0.12 0.17 0.18 0.11 0.05 0.01 0.00 0.03 0.08 0.05 0.01 0.02 0.01 0.00 0.00 0.00 0.00 0.00 0.00 0.00 0.00 0.00 0.00 0.00 0.00 0.00 0.00 0.00 0.00
0.03 0.05 0.05 0.05 0.07 0.06 0.06 0.02 0.02 0.01 0.05 0.10 0.11 0.07 0.06 0.03 0.01 0.00 0.00 0.00 0.00 0.00 0.00 0.00 0.00 0.00 0.00 0.00 0.00 0.00 0.00 0.00
0.00 0.00 0.00 0.01 0.05 0.02 0.02 0.02 0.01 0.01 0.10 0.13 0.06 0.07 0.08 0.04 0.02 0.00 0.00 0.00 0.00 0.00 0.00 0.00 0.00 0.00 0.00 0.00 0.00 0.00 0.00 0.00
0.00 0.00 0.00 0.00 0.04 0.02 0.01 0.03 0.00 0.05 0.06 0.08 0.07 0.06 0.08 0.02 0.01 0.01 0.00 0.00 0.00 0.00 0.00 0.00 0.00 0.00 0.00 0.00 0.00 0.00 0.00 0.00
0.00 0.00 0.00 0.00 0.01 0.00 0.00 0.00 0.01 0.09 0.13 0.15 0.14 0.07 0.13 0.11 0.07 0.10 0.01 0.00 0.00 0.00 0.00 0.00 0.00 0.00 0.00 0.00 0.00 0.00 0.00 0.00
0.00 0.00 0.00 0.00 0.00 0.00 0.00 0.00 0.02 0.10 0.14 0.12 0.22 0.15 0.10 0.06 0.09 0.16 0.05 0.05 0.00 0.00 0.00 0.00 0.00 0.00 0.00 0.00 0.00 0.00 0.00 0.00
0.00 0.00 0.00 0.00 0.00 0.00 0.00 0.00 0.04 0.06 0.16 0.17 0.16 0.15 0.20 0.10 0.06 0.08 0.07 0.03 0.00 0.00 0.00 0.00 0.00 0.00 0.00 0.00 0.00 0.00 0.00 0.00
0.00 0.00 0.00 0.00 0.00 0.00 0.00 0.01 0.01 0.11 0.16 0.13 0.10 0.09 0.11 0.12 0.09 0.10 0.14 0.12 0.10 0.03 0.00 0.00 0.00 0.00 0.00 0.00 0.00 0.00 0.00 0.00
0.00 0.00 0.00 0.00 0.00 0.00 0.00 0.00 0.04 0.12 0.12 0.10 0.08 0.08 0.07 0.05 0.03 0.02 0.03 0.02 0.02 0.03 0.03 0.02 0.02 0.01 0.00 0.00 0.00 0.00 0.00 0.00
0.00 0.00 0.00 0.00 0.04 0.04 0.02 0.02 0.04 0.04 0.06 0.08 0.06 0.07 0.06 0.04 0.04 0.03 0.03 0.03 0.04 0.11 0.19 0.13 0.14 0.07 0.01 0.00 0.00 0.00 0.00 0.00
0.00 0.00 0.00 0.01 0.06 0.05 0.02 0.03 0.05 0.07 0.08 0.15 0.11 0.06 0.05 0.08 0.10 0.08 0.06 0.09 0.15 0.16 0.12 0.12 0.10 0.09 0.05 0.01 0.00 0.00 0.00 0.00
0.00 0.00 0.00 0.00 0.04 0.11 0.13 0.14 0.17 0.29 0.24 0.25 0.16 0.16 0.16 0.26 0.29 0.23 0.17 0.14 0.16 0.19 0.27 0.30 0.22 0.09 0.01 0.01 0.01 0.02 0.01 0.00

GFSFLT2_prec_precacc12_066.txt.gz
Total_Precipitation_Accumulation
4.34 4.07 4.61 4.18 4.51 1.82 0.49 0.12 0.02 0.02 0.04 0.05 0.03 0.00 0.00 0.00 0.00 0.00 0.00 0.00 0.00 0.00 0.00 0.00 0.00 0.00 0.00 0.00 0.00 0.00 0.00 0.00
1.93 1.96 3.02 3.28 3.22 2.66 1.28 0.49 0.09 0.06 0.09 0.10 0.05 0.00 0.00 0.00 0.00 0.00 0.00 0.00 0.00 0.00 0.00 0.00 0.00 0.00 0.00 0.00 0.00 0.00 0.00 0.00
0.53 0.67 0.82 1.31 1.30 1.41 1.48 0.75 0.21 0.08 0.06 0.11 0.08 0.04 0.00 0.00 0.00 0.00 0.00 0.00 0.00 0.00 0.00 0.00 0.00 0.00 0.00 0.00 0.00 0.00 0.00 0.00
0.11 0.09 0.06 0.10 0.18 0.22 0.43 0.48 0.24 0.08 0.06 0.07 0.07 0.02 0.00 0.00 0.00 0.00 0.00 0.00 0.00 0.00 0.00 0.00 0.00 0.00 0.00 0.00 0.00 0.00 0.00 0.00
0.13 0.07 0.03 0.05 0.06 0.05 0.09 0.12 0.09 0.03 0.04 0.02 0.01 0.00 0.00 0.00 0.00 0.00 0.00 0.00 0.00 0.00 0.00 0.00 0.00 0.00 0.00 0.00 0.00 0.00 0.00 0.00
0.07 0.15 0.12 0.19 0.23 0.16 0.12 0.11 0.04 0.02 0.01 0.01 0.00 0.00 0.00 0.00 0.00 0.00 0.00 0.00 0.00 0.00 0.00 0.00 0.00 0.00 0.00 0.00 0.00 0.00 0.00 0.00
0.23 0.10 0.20 0.18 0.19 0.20 0.16 0.15 0.06 0.02 0.01 0.00 0.00 0.00 0.00 0.00 0.00 0.00 0.00 0.00 0.00 0.00 0.00 0.00 0.00 0.00 0.00 0.00 0.00 0.00 0.00 0.00
0.35 0.30 0.25 0.27 0.19 0.20 0.13 0.07 0.02 0.01 0.00 0.00 0.01 0.00 0.00 0.00 0.00 0.00 0.00 0.00 0.00 0.00 0.00 0.00 0.00 0.00 0.00 0.00 0.00 0.00 0.00 0.00
0.41 0.36 0.24 0.15 0.15 0.20 0.16 0.08 0.01 0.00 0.01 0.00 0.00 0.01 0.00 0.00 0.00 0.00 0.00 0.00 0.00 0.00 0.00 0.00 0.00 0.00 0.00 0.00 0.00 0.00 0.00 0.00
0.14 0.19 0.11 0.06 0.07 0.08 0.08 0.03 0.02 0.00 0.01 0.01 0.00 0.00 0.00 0.00 0.00 0.00 0.00 0.00 0.00 0.00 0.00 0.00 0.00 0.00 0.00 0.00 0.00 0.00 0.00 0.00
0.03 0.02 0.01 0.01 0.05 0.02 0.03 0.02 0.01 0.00 0.01 0.01 0.00 0.00 0.00 0.00 0.00 0.00 0.00 0.00 0.00 0.00 0.00 0.00 0.00 0.00 0.00 0.00 0.00 0.00 0.00 0.00
0.01 0.02 0.00 0.00 0.04 0.02 0.01 0.03 0.00 0.00 0.00 0.01 0.02 0.02 0.04 0.00 0.00 0.01 0.00 0.00 0.00 0.00 0.00 0.00 0.00 0.00 0.00 0.00 0.00 0.00 0.00 0.00
0.00 0.00 0.00 0.00 0.01 0.00 0.00 0.01 0.00 0.00 0.00 0.01 0.03 0.05 0.11 0.11 0.07 0.10 0.01 0.01 0.00 0.00 0.00 0.00 0.00 0.00 0.00 0.00 0.00 0.00 0.00 0.00
0.00 0.00 0.00 0.00 0.00 0.00 0.00 0.00 0.00 0.00 0.00 0.01 0.04 0.06 0.09 0.07 0.13 0.26 0.12 0.09 0.02 0.02 0.00 0.00 0.00 0.00 0.00 0.00 0.00 0.00 0.00 0.00
0.00 0.00 0.00 0.00 0.00 0.00 0.00 0.00 0.00 0.00 0.00 0.00 0.01 0.06 0.16 0.13 0.16 0.20 0.15 0.08 0.03 0.01 0.01 0.00 0.00 0.00 0.00 0.00 0.00 0.00 0.00 0.00
0.00 0.00 0.00 0.00 0.00 0.00 0.00 0.00 0.00 0.00 0.00 0.00 0.01 0.05 0.09 0.12 0.15 0.16 0.18 0.13 0.12 0.07 0.02 0.01 0.03 0.06 0.09 0.08 0.05 0.02 0.02 0.02
0.00 0.00 0.00 0.00 0.00 0.00 0.00 0.00 0.00 0.00 0.00 0.00 0.01 0.03 0.04 0.04 0.04 0.03 0.03 0.04 0.06 0.07 0.07 0.13 0.19 0.23 0.25 0.16 0.13 0.13 0.13 0.10
0.00 0.00 0.00 0.00 0.00 0.00 0.00 0.00 0.01 0.01 0.01 0.03 0.00 0.02 0.04 0.06 0.05 0.04 0.04 0.07 0.07 0.14 0.25 0.30 0.28 0.26 0.27 0.24 0.15 0.12 0.10 0.09
0.00 0.00 0.00 0.00 0.00 0.00 0.00 0.00 0.01 0.03 0.03 0.11 0.06 0.02 0.03 0.13 0.20 0.18 0.12 0.12 0.20 0.16 0.15 0.17 0.18 0.19 0.22 0.26 0.21 0.08 0.05 0.04
0.00 0.00 0.00 0.00 0.00 0.00 0.02 0.08 0.14 0.19 0.17 0.18 0.11 0.13 0.14 0.34 0.50 0.48 0.37 0.23 0.20 0.21 0.27 0.31 0.26 0.20 0.18 0.13 0.06 0.06 0.05 0.02

GFSFLT2_prec_precacc12_072.txt.gz
Total_Precipitation_Accumulation
2.23 3.61 4.58 4.38 5.08 3.40 1.19 0.47 0.31 0.28 0.14 0.06 0.03 0.00 0.00 0.00 0.00 0.00 0.00 0.00 0.00 0.00 0.00 0.00 0.00 0.00 0.00 0.00 0.00 0.00 0.00 0.00
0.65 1.34 2.33 3.08 3.49 4.63 3.12 1.75 0.61 0.38 0.21 0.13 0.05 0.00 0.00 0.00 0.00 0.00 0.00 0.00 0.00 0.00 0.00 0.00 0.00 0.00 0.00 0.00 0.00 0.00 0.00 0.00
0.32 0.30 0.33 0.78 1.19 1.93 2.64 2.56 1.79 0.74 0.38 0.14 0.08 0.04 0.00 0.00 0.00 0.00 0.00 0.00 0.00 0.00 0.00 0.00 0.00 0.00 0.00 0.00 0.00 0.00 0.00 0.00
0.13 0.08 0.04 0.08 0.15 0.34 0.91 1.67 1.87 1.21 0.65 0.17 0.07 0.02 0.00 0.00 0.00 0.00 0.00 0.00 0.00 0.00 0.00 0.00 0.00 0.00 0.00 0.00 0.00 0.00 0.00 0.00
0.02 0.00 0.00 0.00 0.01 0.02 0.13 0.53 1.09 1.04 0.59 0.12 0.01 0.00 0.00 0.00 0.00 0.00 0.00 0.00 0.00 0.00 0.00 0.00 0.00 0.00 0.00 0.00 0.00 0.00 0.00 0.00
0.02 0.02 0.02 0.02 0.00 0.00 0.02 0.12 0.28 0.39 0.20 0.03 0.00 0.00 0.00 0.00 0.00 0.00 0.00 0.00 0.00 0.00 0.00 0.00 0.00 0.00 0.00 0.00 0.00 0.00 0.00 0.00
0.13 0.04 0.07 0.04 0.01 0.00 0.00 0.02 0.05 0.11 0.08 0.01 0.00 0.00 0.00 0.00 0.00 0.00 0.00 0.00 0.00 0.00 0.00 0.00 0.00 0.00 0.00 0.00 0.00 0.00 0.00 0.00
0.24 0.16 0.12 0.08 0.01 0.01 0.01 0.01 0.04 0.06 0.03 0.00 0.00 0.00 0.00 0.00 0.00 0.00 0.00 0.00 0.00 0.00 0.00 0.00 0.00 0.00 0.00 0.00 0.00 0.00 0.00 0.00
0.31 0.27 0.18 0.16 0.05 0.03 0.06 0.04 0.03 0.03 0.03 0.00 0.00 0.00 0.00 0.00 0.00 0.00 0.00 0.00 0.00 0.00 0.00 0.00 0.00 0.00 0.00 0.00 0.00 0.00 0.00 0.00
0.19 0.41 0.33 0.21 0.05 0.06 0.07 0.03 0.03 0.05 0.03 0.00 0.00 0.00 0.00 0.00 0.00 0.00 0.00 0.00 0.00 0.00 0.00 0.00 0.00 0.00 0.00 0.00 0.00 0.00 0.00 0.00
0.05 0.20 0.34 0.28 0.04 0.06 0.08 0.04 0.05 0.07 0.05 0.01 0.00 0.00 0.00 0.00 0.00 0.00 0.00 0.00 0.00 0.00 0.00 0.00 0.00 0.00 0.00 0.00 0.00 0.00 0.00 0.00
0.02 0.08 0.19 0.24 0.06 0.04 0.09 0.10 0.09 0.07 0.04 0.01 0.01 0.00 0.00 0.00 0.00 0.00 0.00 0.00 0.00 0.00 0.00 0.00 0.00 0.00 0.00 0.00 0.00 0.00 0.00 0.00
0.01 0.02 0.03 0.09 0.08 0.01 0.07 0.07 0.10 0.06 0.03 0.01 0.01 0.00 0.00 0.00 0.00 0.01 0.00 0.01 0.00 0.00 0.00 0.00 0.00 0.00 0.00 0.00 0.00 0.00 0.00 0.00
0.00 0.00 0.00 0.00 0.01 0.01 0.03 0.05 0.03 0.02 0.01 0.01 0.01 0.00 0.03 0.02 0.04 0.11 0.08 0.05 0.01 0.02 0.00 0.00 0.00 0.00 0.00 0.00 0.00 0.00 0.00 0.00
0.00 0.00 0.00 0.00 0.00 0.00 0.01 0.02 0.02 0.01 0.01 0.00 0.01 0.01 0.02 0.04 0.13 0.13 0.09 0.05 0.03 0.01 0.01 0.00 0.00 0.01 0.00 0.00 0.01 0.00 0.00 0.00
0.00 0.00 0.00 0.00 0.00 0.00 0.00 0.00 0.00 0.00 0.00 0.00 0.00 0.01 0.01 0.01 0.06 0.06 0.05 0.01 0.02 0.04 0.02 0.02 0.05 0.09 0.10 0.09 0.07 0.03 0.04 0.03
0.00 0.00 0.00 0.00 0.00 0.00 0.00 0.00 0.00 0.00 0.00 0.00 0.00 0.00 0.00 0.00 0.00 0.01 0.00 0.02 0.04 0.05 0.04 0.12 0.20 0.25 0.28 0.20 0.16 0.15 0.15 0.14
0.00 0.00 0.00 0.00 0.00 0.00 0.00 0.00 0.01 0.01 0.00 0.00 0.00 0.00 0.01 0.03 0.00 0.01 0.01 0.04 0.03 0.04 0.14 0.21 0.17 0.21 0.28 0.26 0.19 0.19 0.17 0.15
0.00 0.00 0.00 0.00 0.00 0.00 0.00 0.00 0.00 0.03 0.02 0.01 0.00 0.00 0.01 0.07 0.12 0.11 0.07 0.05 0.09 0.08 0.07 0.09 0.16 0.18 0.24 0.29 0.25 0.16 0.11 0.08
0.00 0.00 0.00 0.00 0.00 0.00 0.00 0.01 0.04 0.01 0.07 0.05 0.04 0.05 0.07 0.13 0.22 0.29 0.26 0.18 0.17 0.17 0.12 0.12 0.17 0.20 0.21 0.17 0.12 0.09 0.09 0.06

GFSFLT2_prec_precacc12_075.txt.gz
Total_Precipitation_Accumulation
1.14 1.86 2.90 3.04 3.95 2.75 0.95 0.47 0.58 0.54 0.23 0.05 0.01 0.00 0.00 0.00 0.00 0.00 0.00 0.00 0.00 0.00 0.00 0.00 0.00 0.00 0.00 0.00 0.00 0.00 0.00 0.00
0.65 1.11 1.72 1.92 2.67 3.70 2.58 1.62 0.79 0.73 0.28 0.12 0.03 0.00 0.00 0.00 0.00 0.00 0.00 0.00 0.00 0.00 0.00 0.00 0.00 0.00 0.00 0.00 0.00 0.00 0.00 0.00
0.35 0.42 0.44 0.66 0.92 1.56 2.26 2.40 1.95 1.34 0.70 0.09 0.02 0.00 0.00 0.00 0.00 0.00 0.00 0.00 0.00 0.00 0.00 0.00 0.00 0.00 0.00 0.00 0.00 0.00 0.00 0.00
0.13 0.08 0.08 0.14 0.15 0.28 0.76 1.62 2.05 1.71 1.07 0.24 0.03 0.01 0.00 0.00 0.00 0.00 0.00 0.00 0.00 0.00 0.00 0.00 0.00 0.00 0.00 0.00 0.00 0.00 0.00 0.00
0.02 0.01 0.01 0.04 0.02 0.02 0.15 0.83 1.63 1.59 0.96 0.22 0.01 0.00 0.00 0.00 0.00 0.00 0.00 0.00 0.00 0.00 0.00 0.00 0.00 0.00 0.00 0.00 0.00 0.00 0.00 0.00
0.01 0.00 0.00 0.00 0.00 0.00 0.04 0.45 0.99 0.88 0.33 0.05 0.00 0.00 0.00 0.00 0.00 0.00 0.00 0.00 0.00 0.00 0.00 0.00 0.00 0.00 0.00 0.00 0.00 0.00 0.00 0.00
0.02 0.01 0.00 0.00 0.00 0.00 0.02 0.25 0.33 0.30 0.14 0.01 0.00 0.00 0.00 0.00 0.00 0.00 0.00 0.00 0.00 0.00 0.00 0.00 0.00 0.00 0.00 0.00 0.00 0.00 0.00 0.00
0.10 0.07 0.06 0.06 0.00 0.00 0.01 0.15 0.28 0.13 0.09 0.00 0.00 0.00 0.00 0.00 0.00 0.00 0.00 0.00 0.00 0.00 0.00 0.00 0.00 0.00 0.00 0.00 0.00 0.00 0.00 0.00
0.22 0.21 0.14 0.15 0.05 0.03 0.01 0.08 0.22 0.16 0.05 0.00 0.00 0.00 0.00 0.00 0.00 0.00 0.00 0.00 0.00 0.00 0.00 0.00 0.00 0.00 0.00 0.00 0.00 0.00 0.00 0.00
0.18 0.39 0.40 0.25 0.08 0.06 0.05 0.09 0.17 0.16 0.03 0.00 0.00 0.00 0.00 0.00 0.00 0.00 0.00 0.00 0.00 0.00 0.00 0.00 0.00 0.00 0.00 0.00 0.00 0.00 0.00 0.00
0.05 0.23 0.47 0.36 0.08 0.06 0.09 0.10 0.21 0.17 0.05 0.00 0.00 0.00 0.00 0.00 0.00 0.00 0.00 0.00 0.00 0.00 0.00 0.00 0.00 0.00 0.00 0.00 0.00 0.00 0.00 0.00
0.02 0.09 0.26 0.38 0.10 0.07 0.14 0.17 0.27 0.23 0.07 0.00 0.00 0.00 0.00 0.00 0.00 0.00 0.00 0.00 0.00 0.00 0.00 0.00 0.00 0.00 0.00 0.00 0.00 0.00 0.00 0.00
0.01 0.02 0.04 0.14 0.10 0.03 0.10 0.16 0.26 0.25 0.14 0.01 0.00 0.00 0.00 0.00 0.00 0.00 0.00 0.00 0.00 0.01 0.01 0.00 0.00 0.00 0.00 0.00 0.00 0.00 0.00 0.00
0.01 0.00 0.00 0.01 0.02 0.01 0.03 0.08 0.13 0.16 0.16 0.02 0.01 0.00 0.01 0.01 0.00 0.02 0.02 0.01 0.01 0.01 0.01 0.01 0.01 0.00 0.00 0.00 0.00 0.00 0.00 0.00
0.00 0.00 0.00 0.00 0.01 0.01 0.04 0.16 0.16 0.12 0.15 0.04 0.02 0.01 0.02 0.02 0.03 0.03 0.00 0.01 0.02 0.02 0.01 0.00 0.00 0.01 0.01 0.01 0.01 0.00 0.00 0.00
0.00 0.00 0.00 0.00 0.00 0.00 0.01 0.05 0.08 0.05 0.03 0.03 0.01 0.01 0.02 0.01 0.01 0.02 0.03 0.02 0.02 0.03 0.01 0.01 0.02 0.03 0.05 0.08 0.06 0.03 0.04 0.04
0.00 0.00 0.00 0.00 0.00 0.00 0.00 0.00 0.01 0.04 0.03 0.02 0.00 0.00 0.00 0.01 0.02 0.02 0.01 0.03 0.05 0.07 0.07 0.05 0.04 0.06 0.10 0.10 0.07 0.07 0.11 0.14
0.00 0.00 0.00 0.00 0.00 0.00 0.00 0.00 0.00 0.00 0.00 0.00 0.00 0.00 0.00 0.00 0.00 0.01 0.01 0.03 0.03 0.06 0.13 0.07 0.06 0.05 0.06 0.06 0.09 0.12 0.14 0.16
0.00 0.00 0.00 0.00 0.00 0.00 0.00 0.00 0.00 0.00 0.00 0.00 0.00 0.00 0.00 0.01 0.04 0.08 0.07 0.05 0.09 0.07 0.07 0.09 0.13 0.13 0.16 0.19 0.20 0.15 0.11 0.09
0.00 0.00 0.00 0.00 0.00 0.00 0.00 0.00 0.00 0.00 0.01 0.01 0.03 0.02 0.00 0.00 0.05 0.16 0.20 0.17 0.17 0.16 0.11 0.11 0.14 0.13 0.16 0.14 0.11 0.08 0.08 0.08

GFSFLT2_prec_precacc12_081.txt.gz
Total_Precipitation_Accumulation
0.54 0.56 0.58 0.63 0.61 0.41 0.49 1.07 1.14 0.97 0.48 0.51 0.74 0.31 0.03 0.02 0.03 0.03 0.00 0.00 0.00 0.00 0.00 0.00 0.00 0.00 0.00 0.00 0.00 0.00 0.00 0.00
0.31 0.55 0.45 0.21 0.33 0.26 0.65 0.88 1.30 1.20 0.47 0.21 0.46 0.51 0.17 0.02 0.02 0.05 0.02 0.00 0.00 0.00 0.00 0.00 0.00 0.00 0.00 0.00 0.00 0.00 0.00 0.00
0.16 0.28 0.33 0.27 0.16 0.16 0.45 1.06 1.50 1.75 1.54 0.53 0.30 0.31 0.16 0.03 0.03 0.02 0.01 0.00 0.00 0.00 0.00 0.00 0.00 0.00 0.00 0.00 0.00 0.00 0.00 0.00
0.06 0.06 0.15 0.23 0.15 0.11 0.20 0.86 1.51 1.57 2.25 1.05 0.55 0.41 0.15 0.12 0.11 0.01 0.00 0.00 0.00 0.00 0.00 0.00 0.00 0.00 0.00 0.00 0.00 0.00 0.00 0.00
0.02 0.02 0.02 0.16 0.10 0.06 0.12 0.73 1.44 1.84 1.93 1.38 0.56 0.45 0.30 0.17 0.09 0.03 0.00 0.00 0.00 0.00 0.00 0.00 0.00 0.00 0.00 0.00 0.00 0.00 0.00 0.00
0.01 0.01 0.01 0.02 0.03 0.02 0.06 0.46 1.20 1.38 1.06 0.92 0.69 0.34 0.18 0.15 0.10 0.03 0.00 0.00 0.00 0.00 0.00 0.00 0.00 0.00 0.00 0.00 0.00 0.00 0.00 0.00
0.03 0.01 0.01 0.01 0.00 0.01 0.03 0.29 0.57 0.76 0.65 0.29 0.63 0.22 0.07 0.09 0.09 0.03 0.00 0.00 0.00 0.00 0.00 0.00 0.00 0.00 0.00 0.00 0.00 0.00 0.00 0.00
0.01 0.01 0.01 0.02 0.01 0.02 0.04 0.20 0.61 0.47 0.49 0.15 0.17 0.14 0.08 0.04 0.07 0.04 0.00 0.00 0.00 0.00 0.00 0.00 0.00 0.00 0.00 0.00 0.00 0.00 0.00 0.00
0.02 0.05 0.03 0.05 0.01 0.02 0.05 0.12 0.36 0.46 0.47 0.20 0.11 0.07 0.06 0.02 0.06 0.04 0.01 0.00 0.00 0.00 0.00 0.00 0.00 0.00 0.00 0.00 0.00 0.00 0.00 0.00
0.03 0.10 0.18 0.13 0.06 0.09 0.13 0.27 0.29 0.33 0.30 0.20 0.09 0.04 0.01 0.01 0.03 0.03 0.01 0.00 0.00 0.00 0.00 0.00 0.00 0.00 0.00 0.00 0.00 0.00 0.00 0.00
0.02 0.09 0.30 0.31 0.12 0.14 0.24 0.34 0.41 0.27 0.14 0.10 0.07 0.06 0.03 0.01 0.01 0.00 0.00 0.00 0.00 0.00 0.00 0.00 0.00 0.00 0.00 0.00 0.00 0.00 0.00 0.00
0.02 0.03 0.21 0.37 0.13 0.10 0.29 0.49 0.43 0.28 0.08 0.03 0.05 0.03 0.01 0.00 0.00 0.00 0.00 0.00 0.00 0.00 0.00 0.00 0.00 0.00 0.00 0.00 0.00 0.00 0.00 0.00
0.02 0.01 0.05 0.15 0.12 0.04 0.19 0.38 0.45 0.29 0.15 0.01 0.01 0.00 0.00 0.00 0.00 0.00 0.00 0.00 0.00 0.01 0.01 0.00 0.00 0.00 0.00 0.00 0.00 0.00 0.00 0.00
0.02 0.01 0.01 0.01 0.03 0.03 0.06 0.15 0.30 0.22 0.17 0.02 0.01 0.00 0.01 0.01 0.00 0.02 0.02 0.01 0.00 0.00 0.01 0.02 0.03 0.02 0.01 0.00 0.01 0.01 0.00 0.00
0.01 0.00 0.00 0.01 0.01 0.03 0.07 0.20 0.30 0.23 0.19 0.04 0.02 0.01 0.02 0.02 0.03 0.03 0.00 0.01 0.02 0.01 0.00 0.00 0.01 0.02 0.02 0.02 0.08 0.08 0.04 0.01
0.00 0.00 0.00 0.00 0.00 0.01 0.02 0.06 0.14 0.08 0.04 0.03 0.01 0.01 0.02 0.01 0.00 0.01 0.03 0.02 0.02 0.01 0.02 0.01 0.00 0.02 0.01 0.01 0.05 0.07 0.08 0.11
0.00 0.01 0.00 0.00 0.00 0.00 0.01 0.02 0.04 0.07 0.06 0.03 0.01 0.00 0.01 0.01 0.01 0.01 0.01 0.02 0.02 0.05 0.06 0.03 0.02 0.06 0.03 0.03 0.02 0.02 0.03 0.03
0.00 0.00 0.00 0.00 0.00 0.00 0.01 0.01 0.02 0.04 0.03 0.02 0.00 0.00 0.00 0.00 0.00 0.00 0.01 0.00 0.03 0.06 0.17 0.10 0.06 0.12 0.15 0.12 0.05 0.04 0.03 0.04
0.00 0.00 0.00 0.00 0.00 0.00 0.00 0.01 0.00 0.00 0.01 0.00 0.00 0.00 0.00 0.00 0.00 0.00 0.02 0.02 0.05 0.12 0.17 0.15 0.18 0.19 0.23 0.16 0.14 0.10 0.07 0.12
0.00 0.00 0.00 0.00 0.00 0.00 0.00 0.00 0.00 0.00 0.00 0.00 0.00 0.00 0.00 0.00 0.00 0.01 0.00 0.02 0.03 0.12 0.15 0.14 0.20 0.15 0.11 0.08 0.06 0.05 0.07 0.10

GFSFLT2_prec_precacc12_087.txt.gz
Total_Precipitation_Accumulation
0.23 0.24 0.22 0.37 0.54 0.33 0.31 0.93 0.89 1.22 1.59 1.74 2.17 1.81 0.39 0.10 0.15 0.09 0.01 0.00 0.00 0.00 0.00 0.00 0.00 0.00 0.00 0.00 0.00 0.00 0.00 0.00
0.12 0.26 0.21 0.09 0.12 0.12 0.17 0.29 0.86 0.76 1.05 1.08 1.22 1.64 1.14 0.41 0.14 0.09 0.03 0.00 0.00 0.00 0.00 0.00 0.00 0.00 0.00 0.00 0.00 0.00 0.00 0.00
0.08 0.14 0.21 0.18 0.15 0.08 0.13 0.15 0.31 1.02 1.83 1.51 1.07 0.96 1.25 0.63 0.31 0.10 0.02 0.00 0.00 0.00 0.00 0.00 0.00 0.00 0.00 0.00 0.00 0.00 0.00 0.00
0.01 0.07 0.12 0.17 0.16 0.09 0.04 0.07 0.12 0.35 2.29 1.92 1.67 0.86 0.56 0.54 0.53 0.14 0.01 0.00 0.00 0.00 0.00 0.00 0.00 0.00 0.00 0.00 0.00 0.00 0.00 0.00
0.00 0.02 0.02 0.14 0.10 0.09 0.11 0.13 0.21 0.54 1.28 1.69 1.68 0.78 0.63 0.45 0.67 0.39 0.02 0.00 0.00 0.00 0.00 0.00 0.00 0.00 0.00 0.00 0.00 0.00 0.00 0.00
0.01 0.01 0.01 0.05 0.06 0.04 0.08 0.12 0.42 0.73 0.88 0.96 0.89 0.49 0.39 0.31 0.40 0.38 0.03 0.00 0.00 0.00 0.00 0.00 0.00 0.00 0.00 0.00 0.00 0.00 0.00 0.00
0.02 0.02 0.01 0.01 0.01 0.01 0.02 0.08 0.34 0.67 0.69 0.32 0.66 0.31 0.16 0.18 0.29 0.30 0.06 0.00 0.00 0.00 0.00 0.00 0.00 0.00 0.00 0.00 0.00 0.00 0.00 0.00
0.01 0.02 0.01 0.01 0.02 0.03 0.04 0.07 0.37 0.42 0.52 0.21 0.17 0.18 0.20 0.17 0.22 0.18 0.04 0.00 0.00 0.00 0.00 0.00 0.00 0.00 0.00 0.00 0.00 0.00 0.00 0.00
0.01 0.02 0.01 0.01 0.01 0.01 0.04 0.04 0.16 0.33 0.47 0.30 0.14 0.08 0.10 0.09 0.20 0.14 0.03 0.00 0.00 0.00 0.00 0.00 0.00 0.00 0.00 0.00 0.00 0.00 0.00 0.00
0.01 0.02 0.01 0.03 0.02 0.07 0.11 0.19 0.14 0.18 0.31 0.33 0.13 0.08 0.05 0.07 0.17 0.20 0.09 0.01 0.00 0.00 0.00 0.00 0.00 0.00 0.00 0.00 0.00 0.00 0.00 0.00
0.01 0.02 0.03 0.04 0.07 0.10 0.18 0.26 0.21 0.13 0.13 0.20 0.13 0.11 0.13 0.07 0.15 0.16 0.18 0.06 0.01 0.00 0.00 0.00 0.00 0.00 0.00 0.00 0.00 0.00 0.00 0.00
0.02 0.02 0.02 0.04 0.07 0.04 0.18 0.34 0.18 0.11 0.12 0.15 0.17 0.11 0.19 0.19 0.16 0.10 0.08 0.05 0.01 0.00 0.00 0.00 0.00 0.00 0.00 0.00 0.00 0.00 0.00 0.00
0.01 0.01 0.01 0.01 0.02 0.04 0.11 0.23 0.20 0.06 0.07 0.11 0.14 0.16 0.15 0.26 0.27 0.17 0.10 0.02 0.01 0.00 0.00 0.00 0.00 0.00 0.00 0.00 0.00 0.00 0.00 0.00
0.01 0.01 0.01 0.01 0.01 0.02 0.03 0.07 0.17 0.07 0.04 0.03 0.05 0.14 0.24 0.18 0.12 0.15 0.10 0.02 0.00 0.00 0.00 0.01 0.02 0.02 0.01 0.00 0.01 0.01 0.00 0.00
0.01 0.01 0.01 0.01 0.01 0.03 0.04 0.05 0.15 0.12 0.05 0.01 0.01 0.04 0.06 0.10 0.06 0.05 0.04 0.01 0.00 0.00 0.00 0.00 0.01 0.02 0.02 0.03 0.11 0.11 0.06 0.01
0.00 0.00 0.01 0.01 0.01 0.02 0.02 0.03 0.06 0.03 0.01 0.01 0.00 0.00 0.00 0.00 0.01 0.00 0.00 0.01 0.01 0.00 0.03 0.02 0.02 0.01 0.00 0.02 0.09 0.14 0.14 0.12
0.00 0.01 0.00 0.01 0.01 0.00 0.01 0.01 0.02 0.03 0.03 0.01 0.01 0.00 0.00 0.00 0.01 0.00 0.00 0.01 0.02 0.01 0.02 0.03 0.04 0.09 0.03 0.01 0.01 0.08 0.12 0.04
0.00 0.00 0.00 0.01 0.00 0.00 0.01 0.01 0.02 0.05 0.03 0.02 0.00 0.00 0.00 0.00 0.00 0.00 0.01 0.01 0.04 0.06 0.08 0.07 0.06 0.18 0.21 0.18 0.04 0.02 0.06 0.04
0.00 0.00 0.00 0.01 0.01 0.00 0.01 0.01 0.00 0.00 0.01 0.00 0.00 0.00 0.00 0.00 0.00 0.00 0.02 0.02 0.07 0.17 0.24 0.16 0.15 0.19 0.24 0.16 0.14 0.07 0.07 0.10
0.00 0.00 0.00 0.00 0.01 0.00 0.01 0.01 0.00 0.00 0.00 0.00 0.00 0.00 0.00 0.00 0.00 0.01 0.00 0.02 0.03 0.11 0.18 0.13 0.16 0.13 0.14 0.10 0.07 0.04 0.03 0.04